RH
97 93 84 65 45 36 36 38 43 45 51 53 55 59 64 64 63 59 53 51 58 60 67 72 71 77 80
97 96 96 81 71 53 39 43 45 50 55 61 64 63 70 71 70 65 56 52 56 63 64 65 68 71 68
98 98 98 95 91 84 63 47 48 54 58 64 71 74 76 74 71 65 57 54 56 61 63 64 63 62 65
95 98 98 98 95 95 90 78 62 57 61 60 68 73 75 72 70 68 64 60 59 64 63 60 61 64 68
91 96 98 98 95 95 95 94 88 72 60 56 62 65 69 78 73 70 71 72 75 70 68 62 63 68 68
74 96 93 90 95 95 95 98 89 84 72 57 51 52 56 63 65 66 66 66 68 72 74 64 63 68 67
61 69 85 77 85 96 93 93 93 90 89 83 68 53 46 45 44 44 51 59 64 70 73 67 68 69 66
40 70 78 80 80 90 93 91 98 99 96 95 88 76 72 60 56 47 50 61 64 71 69 68 71 66 63
35 48 66 62 77 87 97 99 98 97 96 98 95 94 92 80 63 56 60 63 58 62 65 69 67 59 66
26 45 43 58 76 80 85 98 99 99 89 96 97 94 95 84 78 66 58 53 54 62 67 67 66 67 74
25 28 45 55 77 78 71 97 96 97 95 94 96 95 92 83 77 73 61 58 59 67 66 71 74 76 82
29 24 34 53 57 69 65 72 81 86 85 84 78 87 85 81 78 75 70 67 68 69 70 78 83 86 90
37 27 23 49 58 60 62 63 69 67 84 75 73 82 84 84 80 73 74 69 71 73 74 87 90 92 97
38 27 22 38 66 58 60 49 69 78 76 75 77 84 90 91 95 85 83 77 73 74 79 92 96 99 99
38 34 26 29 61 54 47 52 64 73 84 83 86 91 94 94 92 87 93 90 83 85 89 94 98 99 98
36 37 28 22 37 49 47 62 65 83 92 88 87 95 94 92 92 93 95 93 95 96 95 96 98 98 98
35 37 31 21 46 49 51 55 73 96 95 86 90 88 98 92 90 94 95 97 99 99 98 99 98 98 97